Find Starlink 1151

NORAD ID: 45081 Int'l Des: 2020-006 Owner: SPXS Country: US Constellation: starlink operational
LEOCIRCULAR

Live-Position

3D-Globus wird geladen...

Über Starlink 1151

Beschreibung wird geladen...

Nächste Überflüge

Passes for default location (London). Set your location on the main map for personalized predictions.

Höhenverlauf

Loading altitude history...

Zweizeiliger Elementsatz

1 45081U 20006AP 26125.76568647 .00082115 00000-0 58386-3 0 9991
2 45081 53.0509 317.9436 0003295 179.7221 180.3799 15.73188651346086
Epoch: 5. Mai 2026 • Age: 28 hours

Aktueller Status

Höhe 354.0 km
Geschwindigkeit 7.70 km/s
Subsatellitenpunkt 38.14°N, 152.92°E
Startdatum 29. Jan. 2020
Alter 6.2 years
Typ internet

Technische Details

Klassifizierung Payload
Masse 260.00 kg
Trockenmasse 248.00 kg
Gesamtmasse 260.00 kg
Länge 0.20 m
Durchmesser 2.80 m
Spannweite 9.00 m
Form Box + pan
Hersteller SPXS
Bus-Typ Starlink
Phasenstatus In Orbit
Besitzer/Staat SPXS/US

Most Searched